Zurück zum Katalog

STARLINK-31819

AktivKommunikationVLEO
NORAD 59738·PAYLOAD·🇺🇸 United States

Gestartet May 13, 2024 von Cape Canaveral Space Force Station

Loading…

Nächste Überflüge (nächste 24 Stunden)

TLE

AktuellSource: CelesTrak SupGP

Epoche: Sep 15, 2026, 02:36 UTC

1 59738C 24090J   26258.10881944 -.00024190  00000+0 -87627-3 0  2583
2 59738  43.0024 193.7732 0001311 270.9853 287.4039 15.27586583    13

Verfolge STARLINK-31819 in Echtzeit mit AllMySat

Download on the App Store